Location: Chakepay
(13.3931°S, 72.1925°W)
Time: 09:00:49
(UTC+00:00)

Geosat - Pass Details

Date: 15 November 2019
Orbit: 763 x 766 km, 108.0° (Epoch: 14 December)

Event Time Altitude Azimuth Distance (km) Brightness Sun altitude
Rises 09:30:54 0° 156° (SSE) 3,236 8.0 -10.1°
Reaches altitude 10° 09:33:11 10° 155° (SSE) 2,305 7.2 -9.6°
Maximum altitude 09:38:13 79° 68° (ENE) 781 4.2 -8.4°
Drops below altitude 10° 09:43:12 10° 342° (NNW) 2,287 6.1 -7.3°
Sets 09:45:28 0° 340° (NNW) 3,208 6.8 -6.8°
